Location: Newark
(13.8117°N, 3.6025°W)
Time: 22:34:17
(UTC+00:00)

Vanguard 2 - Pass Details

Date: 26 August 2019
Orbit: 554 x 2937 km, 32.9° (Epoch: 22 September)

Event Time Altitude Azimuth Distance (km) Brightness Sun altitude
Rises 10:28:30 0° 266° (W) 2,711 10.1 63.4°
Reaches altitude 10° 10:30:52 10° 280° (W) 1,849 9.4 64.0°
Maximum altitude 10:34:19 26° 339° (NNW) 1,232 8.8 64.8°
Drops below altitude 10° 10:38:32 10° 36° (NE) 2,295 10.3 65.9°
Sets 10:41:51 0° 49° (NE) 3,540 11.2 66.7°
